Big Piney, WY

10:51 PM MDT on September 28, 2016 (GMT -0600)
Big Piney-Marbleton

Weather History for KBPI - February, 2014

Change the Weather History Date:

Tuesday, February 18, 2014

  Actual Average Record
Temperature  
Mean Temperature 25 °F 15 °F  
Max Temperature 37 °F 30 °F 48 °F (2015)
Min Temperature 12 °F 1 °F -34 °F (2006)
Degree Days  
Heating Degree Days 40 50  
Month to date heating degree days 926 937  
Since 1 July heating degree days 6529 7050  
Cooling Degree Days 0 0  
Month to date cooling degree days 0 0  
Year to date cooling degree days 0 0  
Moisture  
Dew Point 15 °F    
Average Humidity 59    
Maximum Humidity 80    
Minimum Humidity 37    
Precipitation  
Precipitation 0.00 in 0.01 in 0.11 in (2016)
Month to date precipitation 0.02 0.22  
Year to date precipitation 0.04 0.53  
Sea Level Pressure  
Sea Level Pressure 30.01 in    
Wind  
Wind Speed 11 mph (North)    
Max Wind Speed 32 mph    
Max Gust Speed 40 mph    
Visibility 10 miles    
Events      
T = Trace of Precipitation, MM = Missing Value Source: NWS Daily Summary

Daily Weather History Graph

Daily Weather History Graph

Search for Another Location

Airport or City:

Trip Planner

Search our weather history database for the weather conditions in past years. The results will help you decide how hot, cold, wet, or windy it might be!

Date:

Astronomy

Feb. 18, 2014 Rise Set
Actual Time 7:12 AM MST 5:56 PM MST
Civil Twilight 6:44 AM MST 6:25 PM MST
Nautical Twilight 6:11 AM MST 6:58 PM MST
Astronomical Twilight 5:38 AM MST 7:30 PM MST
Moon 9:59 PM MST (2/18) 8:41 AM MST (2/18)
Length of Visible Light 11h 41m
Length of Day
10h 43m
Waning Gibbous, 87% of the Moon is Illuminated
Feb 18
Waning Gibbous
Feb 22
Last Quarter
Mar 1
New
Mar 8
First Quarter
Mar 16
Full

Hourly Weather History & Observations

Time (MST) Temp. Windchill Dew Point Humidity Pressure Visibility Wind Dir Wind Speed Gust Speed Precip Events Conditions
12:53 AM 25.0 °F 14.8 °F 10.9 °F 55% 29.90 in 10.0 mi WNW 10.4 mph - N/A   Clear
1:53 AM 26.1 °F 14.5 °F 10.9 °F 53% 29.88 in 10.0 mi West 13.8 mph - N/A   Clear
2:53 AM 24.1 °F 11.5 °F 10.9 °F 57% 29.88 in 10.0 mi West 15.0 mph - N/A   Mostly Cloudy
3:53 AM 30.0 °F 15.4 °F 14.0 °F 51% 29.87 in 10.0 mi WNW 27.6 mph 35.7 mph N/A   Mostly Cloudy
4:53 AM 30.0 °F 16.3 °F 17.1 °F 59% 29.85 in 10.0 mi WNW 24.2 mph - N/A   Overcast
5:53 AM 28.9 °F 14.3 °F 19.9 °F 69% 29.90 in 10.0 mi WNW 26.5 mph 40.3 mph N/A   Overcast
6:53 AM 28.0 °F 14.3 °F 18.0 °F 66% 29.95 in 10.0 mi NW 21.9 mph 32.2 mph N/A   Mostly Cloudy
7:53 AM 27.0 °F 14.7 °F 17.1 °F 66% 30.01 in 10.0 mi NW 16.1 mph - N/A   Clear
8:53 AM 28.0 °F 15.7 °F 17.1 °F 63% 30.06 in 10.0 mi WNW 17.3 mph - N/A   Clear
9:53 AM 30.0 °F 21.1 °F 18.0 °F 61% 30.06 in 10.0 mi North 10.4 mph - N/A   Clear
10:53 AM 32.0 °F 26.4 °F 17.1 °F 54% 30.09 in 10.0 mi NW 5.8 mph - N/A   Mostly Cloudy
11:53 AM 32.0 °F 28.7 °F 16.0 °F 52% 30.10 in 10.0 mi Variable 3.5 mph - N/A   Clear
12:53 PM 34.0 °F 31.0 °F 16.0 °F 48% 30.06 in 10.0 mi East 3.5 mph - N/A   Clear
1:53 PM 37.0 °F 32.4 °F 14.0 °F 39% 30.03 in 10.0 mi ENE 5.8 mph - N/A   Clear
2:53 PM 34.0 °F 25.5 °F 19.0 °F 54% 30.06 in 10.0 mi NE 11.5 mph - N/A   Clear
3:53 PM 34.0 °F 26.0 °F 19.9 °F 56% 30.03 in 10.0 mi ENE 10.4 mph - N/A   Clear
4:53 PM 32.0 °F 27.5 °F 19.0 °F 59% 30.03 in 10.0 mi East 4.6 mph - N/A   Clear
5:53 PM 27.0 °F 20.5 °F 18.0 °F 69% 30.07 in 10.0 mi East 5.8 mph - N/A   Clear
6:53 PM 26.1 °F - 16.0 °F 66% 30.08 in 10.0 mi Calm Calm - N/A   Clear
7:53 PM 19.9 °F 14.9 °F 14.0 °F 78% 30.10 in 10.0 mi SSW 3.5 mph - N/A   Mostly Cloudy
8:53 PM 19.0 °F 10.0 °F 12.0 °F 74% 30.08 in 10.0 mi East 6.9 mph - N/A   Partly Cloudy
9:53 PM 17.1 °F 6.6 °F 10.9 °F 77% 30.04 in 10.0 mi East 8.1 mph - N/A   Clear
10:53 PM 14.0 °F 2.0 °F 9.0 °F 80% 30.04 in 10.0 mi NE 9.2 mph - N/A   Clear
11:53 PM 15.1 °F 9.4 °F 9.0 °F 77% 30.00 in 10.0 mi East 3.5 mph - N/A   Clear